Regional Weather Roundup
Issued by NWS San Angelo, TX

Home | Current Version | Previous Version | Text Only | Print | Product List | Glossary On
Versions: 1 2 3 4 5 6 7 8 9 10 11 12 13 14 15 16 17 18 19 20 21 22 23 24 25 26 27 28 29 30 31 32 33 34 35 36 37 38 39 40 41 42 43 44 45 46 47 48 49 50
000
ASUS44 KSJT 092202
RWRSJT
WEST CENTRAL TEXAS REGIONAL WEATHER ROUNDUP
NATIONAL WEATHER SERVICE SAN ANGELO TX
400 PM CST FRI DEC 09 2016

NOTE: "FAIR" INDICATES FEW OR NO CLOUDS BELOW 12,000 FEET WITH NO
SIGNIFICANT WEATHER AND/OR OBSTRUCTIONS TO VISIBILITY.

TXZ049-054-064>066-071>073-076>078-098-099-113-114-127-128-139-140-
154-155-168>170-092300
...LOCATIONS ACROSS WEST CENTRAL TEXAS...

CITY           SKY/WX    TMP DP  RH WIND       PRES   REMARKS
SAN ANGELO     CLOUDY    47  25  42 S10       30.38F
ABILENE        CLOUDY    42  21  43 S12       30.41F WCI  36
DYESS AFB      NOT AVBL
JUNCTION       CLOUDY    45  21  38 S6        30.43S
SWEETWATER     CLOUDY    40  26  57 S15       30.37F WCI  31
BROWNWOOD      NOT AVBL
COLEMAN        CLOUDY    42  23  46 S9        30.43S WCI  37
SONORA         CLOUDY    45  25  45 S8        30.44F
OZONA          CLOUDY    43  28  56 S14       30.41F WCI  36
BRADY          NOT AVBL
$$

TEXAS PANHANDLE/OKLAHOMA PANHANDLE

CITY           SKY/WX    TMP DP  RH WIND       PRES   REMARKS
AMARILLO       SUNNY     47  29  49 S14       30.20S
BORGER         SUNNY     43  27  53 S14       30.22R WCI  36
CANADIAN       SUNNY     40  23  49 S14G21    30.27F WCI  33
DALHART        NOT AVBL
DUMAS          CLEAR     45  26  47 S10       30.17S
GUYMON         NOT AVBL
HEREFORD       CLEAR     51  32  48 SW17G25   30.17F
PAMPA          CLEAR     42  28  56 S14G20    30.23S WCI  35
PERRYTON       SUNNY     43  25  48 S17       30.22S WCI  35
$$

SOUTHERN PANHANDLE/SOUTH PLAINS/ROLLING PLAINS

CITY           SKY/WX    TMP DP  RH WIND       PRES   REMARKS
LUBBOCK        MOSUNNY   42  29  59 SW16      30.25F WCI  34
SNYDER         CLOUDY    38  26  61 S13       30.35F WCI  30
CHILDRESS      CLOUDY    38  20  48 S12       30.35F WCI  30
SEMINOLE       CLEAR     42  31  64 SW15      30.30F WCI  35
$$

PERMIAN BASIN

CITY           SKY/WX    TMP DP  RH WIND       PRES   REMARKS
MIDLAND        SUNNY     44  30  57 S12       30.31F WCI  38
ODESSA         SUNNY     44  30  57 S10       30.31F WCI  39
WINK           SUNNY     46  34  62 S12       30.30F
$$

FAR WEST/SOUTHWEST MOUNTAINS/TRANS PECOS

CITY           SKY/WX    TMP DP  RH WIND       PRES   REMARKS
ALPINE         CLEAR     50  34  55 SW12      30.36F
DRYDEN           N/A     44  32  62 S9        30.36F WCI  39
EL PASO        MOSUNNY   45  30  55 NE3       30.31F
FORT STOCKTON  SUNNY     50  36  58 N6        30.31F
GUADALUPE PASS NOT AVBL
MARFA          SUNNY     50  35  56 S8        30.33F
PECOS          CLEAR     48  36  63 SE7       30.31F
$$

DALLAS/FORT WORTH METROPLEX

CITY           SKY/WX    TMP DP  RH WIND       PRES   REMARKS
DFW AIRPORT    PTSUNNY   38  13  35 SE6       30.51F WCI  33
FTW MEACHAM    CLOUDY    39  13  34 E3        30.50F
DAL-EXECUTIVE  MOSUNNY   39  17  41 E3        30.51F
GRAND PRAIRIE  CLOUDY    37  12  35 CALM      30.53F
ADDISON        CLOUDY    37  14  38 SE3       30.53F
MESQUITE       CLOUDY    39  16  38 CALM      30.53F
LANCASTER      CLEAR     41  18  40 E3        30.53F
$$

NORTH CENTRAL TEXAS

CITY           SKY/WX    TMP DP  RH WIND       PRES   REMARKS
SHRMAN/DENISON CLOUDY    37  15  40 SE5       30.52F WCI  34
GAINESVILLE    CLOUDY    36  14  40 SE7       30.52F WCI  30
BRIDGEPORT     CLOUDY    37  18  46 E6        30.52S WCI  32
DENTON         CLOUDY    37  13  37 SE7       30.51F WCI  32
WAXAHACHIE     CLEAR     40  19  42 CALM      30.52F
GRANBURY       MOCLDY    43  17  35 E5        30.50F WCI  40
$$

WESTERN NORTH TEXAS

CITY           SKY/WX    TMP DP  RH WIND       PRES   REMARKS
WICHITA FALLS  CLOUDY    37  15  40 S14       30.44F WCI  28
VERNON         CLOUDY    37  13  36 S12       30.42F WCI  30
BRECKENRIDGE   CLOUDY    42  15  34 S7        30.45F WCI  37
COMANCHE       MOSUNNY   45  20  37 SE6       30.45S
$$

CENTRAL AND SOUTH CENTRAL TEXAS

CITY           SKY/WX    TMP DP  RH WIND       PRES   REMARKS
AUSTIN/BERGSTM CLOUDY    45  21  38 NE7       30.51S
WACO           SUNNY     45  19  35 S3        30.50F
HILLSBORO      CLEAR     43  21  40 E7        30.51S WCI  39
TEMPLE         CLOUDY    45  20  36 SE6       30.50F
KILLEEN-GRAY   CLOUDY    43  17  35 S7        30.46F WCI  39
FORT HOOD      CLOUDY    45  18  33 SE3       30.45F
GEORGETOWN     CLOUDY    45  16  31 E5        30.50F
LAGO VISTA     CLOUDY    44  20  38 E3        30.48F
SAN MARCOS     CLOUDY    45  23  42 N5        30.52F
NEW BRAUNFELS  CLOUDY    46  18  32 NE6       30.49F
RANDOLPH AFB   CLOUDY    45  18  33 N6        30.49F
SAN ANTONIO    CLOUDY    45  18  34 NE5       30.49F
STINSON        CLOUDY    49  18  29 N5        30.49F
PLEASANTON     NOT AVBL
LA GRANGE      CLOUDY    47  22  37 N5        30.50S
GIDDINGS       CLOUDY    45  18  34 NE6       30.55S
$$

EAST TEXAS

CITY           SKY/WX    TMP DP  RH WIND       PRES   REMARKS
PARIS          CLOUDY    39  16  38 SE6       30.54F WCI  35
CLARKSVILLE    NOT AVBL
TYLER          CLOUDY    42  19  39 NE3       30.52F
LONGVIEW       CLOUDY    43  20  39 VRB3      30.53F
PALESTINE      CLEAR     46  17  32 CALM      30.53F
NACOGDOCHES    PTSUNNY   46  19  34 E3        30.51S
$$

TEXAS HILL COUNTRY AND EDWARDS PLATEAU

CITY           SKY/WX    TMP DP  RH WIND       PRES   REMARKS
LLANO          CLOUDY   N/A N/A N/A SE3       30.50F
HORSESHOE BAY  CLOUDY    43  21  41 CALM      30.48F
KERRVILLE      CLOUDY    41  20  42 E3        30.45F
FREDERICKSBRG  CLOUDY    41  18  39 E5        30.45F WCI  38
ROCKSPRINGS    CLOUDY    43  25  49 S5        30.43F
HONDO          CLOUDY    48  22  35 SE3       30.48F
UVALDE         CLOUDY    44  23  44 CALM      30.49F
DEL RIO        CLOUDY    45  29  53 SE7       30.45F
$$

SOUTHEAST TEXAS

CITY           SKY/WX    TMP DP  RH WIND       PRES   REMARKS
COLLEGE STN    SUNNY     47  18  31 N7        30.51F
CALDWELL       NOT AVBL
CROCKETT       NOT AVBL
BRENHAM        CLOUDY    47  19  32 NE3       30.52S
HUNTSVILLE     CLOUDY    47  19  33 NW7       30.52F
CONROE         CLOUDY    47  24  40 N5        30.51F
HOUSTON BUSH   PTSUNNY   50  25  37 N10       30.50F
HOUSTON HOBBY  PTSUNNY   51  24  34 NE7       30.50S
PERLAND        CLOUDY    53  21  28 NE7       30.51S
WHARTON        CLOUDY    49  24  37 NE6       30.50F
$$

THE UPPER TEXAS COAST

CITY           SKY/WX    TMP DP  RH WIND       PRES   REMARKS
ORANGE         CLEAR     51  14  23 NE6       30.51S
PORT ARTHUR    SUNNY     52  22  30 N9        30.50R
GALVESTON      CLOUDY    52  27  38 NE13      30.50S
ANGLETON       CLOUDY    53  27  36 NE6       30.49F
BAY CITY       PTCLDY    51  29  42 CALM      30.49F
$$

TEXAS COASTAL BEND, RIO GRANDE PLAINS DEEP SOUTH TEXAS

CITY           SKY/WX    TMP DP  RH WIND       PRES   REMARKS
VICTORIA       PTSUNNY   51  25  36 NE7       30.50F
BEEVILLE       CLOUDY    50  25  38 NE6       30.49S
ROCKPORT         N/A    N/A N/A N/A MISG      30.50F
PORT ARANSAS   CLOUDY    47  32  57 NE9       30.50S
PORT LAVACA    CLOUDY    48  33  56 N7        30.51S
CORPUS CHRISTI CLOUDY    48  29  47 VRB6      30.50F
KINGSVILLE NAS CLOUDY    46  30  53 N7        30.51F
COTULLA        CLOUDY    50  21  32 VRB3      30.49F
LAREDO         CLOUDY    47  28  47 N8        30.50F
BROWNSVILLE    CLOUDY    45  34  65 NW15      30.46S WCI  38
PORT ISABEL    CLOUDY    45  35  68 NW18      30.45S WCI  37
HEBBRONVILLE   CLOUDY    44  25  47 N7        30.49F WCI  40
MCALLEN        CLOUDY    48  30  49 N13       30.50S
WESLACO        CLOUDY    46  30  54 N10       30.49S
FALFURRIAS     CLOUDY    46  26  45 N6        30.51S
EDINBURG       CLOUDY    48  28  46 N10       30.51R
$$




USA.gov is the U.S. government's official web portal to all federal, state and local government web resources and services.